Time,TemperatureF,DewpointF,PressureIn,WindDirection,WindDirectionDegrees,WindSpeedMPH,WindSpeedGustMPH,Humidity,HourlyPrecipIn,Conditions,Clouds,dailyrainin,SoftwareType,DateUTC
2013-01-08 00:03:00,70.1,69.0,30.09,SSW,196,0.0,-999.0,96,-99.99,,,0.00,weatherlink.com 1.10,2013-01-08 05:03:00,
2013-01-08 00:18:00,70.0,69.0,30.09,SSW,196,0.0,-999.0,96,-99.99,,,0.00,weatherlink.com 1.10,2013-01-08 05:18:00,
2013-01-08 00:33:00,69.8,69.0,30.09,SSW,196,0.0,-999.0,96,-99.99,,,0.00,weatherlink.com 1.10,2013-01-08 05:33:00,
2013-01-08 00:48:00,69.7,69.0,30.09,SSW,196,0.0,-999.0,96,-99.99,,,0.00,weatherlink.com 1.10,2013-01-08 05:48:00,
2013-01-08 01:03:00,69.7,69.0,30.09,SSW,196,0.0,-999.0,96,-99.99,,,0.00,weatherlink.com 1.10,2013-01-08 06:03:00,
2013-01-08 01:18:00,69.6,69.0,30.09,SSW,196,0.0,-999.0,96,-99.99,,,0.00,weatherlink.com 1.10,2013-01-08 06:18:00,
2013-01-08 01:33:00,69.4,68.0,30.08,SSW,196,0.0,-999.0,96,-99.99,,,0.00,weatherlink.com 1.10,2013-01-08 06:33:00,
2013-01-08 01:48:00,69.6,69.0,30.08,East,96,0.0,-999.0,97,-99.99,,,0.00,weatherlink.com 1.10,2013-01-08 06:48:00,
2013-01-08 02:03:00,70.1,69.0,30.08,ESE,102,0.0,-999.0,97,-99.99,,,0.00,weatherlink.com 1.10,2013-01-08 07:03:00,
2013-01-08 02:18:00,70.6,70.0,30.07,East,84,0.0,-999.0,96,-99.99,,,0.00,weatherlink.com 1.10,2013-01-08 07:18:00,
2013-01-08 02:48:00,71.8,70.0,30.07,East,86,0.0,-999.0,94,-99.99,,,0.00,weatherlink.com 1.10,2013-01-08 07:48:00,
2013-01-08 03:03:00,71.4,70.0,30.07,East,86,0.0,-999.0,95,-99.99,,,0.00,weatherlink.com 1.10,2013-01-08 08:03:00,
2013-01-08 03:18:00,71.3,70.0,30.07,NE,51,0.0,-999.0,95,-99.99,,,0.00,weatherlink.com 1.10,2013-01-08 08:18:00,
2013-01-08 03:33:00,71.5,70.0,30.07,ENE,76,0.0,-999.0,95,-99.99,,,0.00,weatherlink.com 1.10,2013-01-08 08:33:00,
2013-01-08 03:48:00,71.4,70.0,30.07,NW,319,0.0,-999.0,95,-99.99,,,0.00,weatherlink.com 1.10,2013-01-08 08:48:00,
2013-01-08 04:03:00,71.5,70.0,30.06,East,96,0.0,-999.0,95,-99.99,,,0.00,weatherlink.com 1.10,2013-01-08 09:03:00,
2013-01-08 04:18:00,71.5,70.0,30.06,ENE,61,0.0,-999.0,95,-99.99,,,0.00,weatherlink.com 1.10,2013-01-08 09:18:00,
2013-01-08 04:33:00,71.4,70.0,30.06,ENE,61,0.0,-999.0,95,-99.99,,,0.00,weatherlink.com 1.10,2013-01-08 09:33:00,
2013-01-08 04:48:00,71.4,70.0,30.07,South,175,0.0,-999.0,95,-99.99,,,0.02,weatherlink.com 1.10,2013-01-08 09:48:00,
2013-01-08 05:03:00,71.3,70.0,30.07,SSE,149,0.0,-999.0,94,-99.99,,,0.03,weatherlink.com 1.10,2013-01-08 10:03:00,
2013-01-08 05:18:00,71.3,70.0,30.07,SE,140,0.0,-999.0,94,-99.99,,,0.03,weatherlink.com 1.10,2013-01-08 10:18:00,
2013-01-08 05:33:00,71.0,69.0,30.08,SE,140,0.0,-999.0,94,-99.99,,,0.03,weatherlink.com 1.10,2013-01-08 10:33:00,
2013-01-08 05:48:00,70.9,70.0,30.09,SE,140,0.0,-999.0,95,-99.99,,,0.03,weatherlink.com 1.10,2013-01-08 10:48:00,
2013-01-08 06:03:00,70.8,69.0,30.09,SE,140,0.0,-999.0,95,-99.99,,,0.03,weatherlink.com 1.10,2013-01-08 11:03:00,
2013-01-08 06:18:00,70.7,69.0,30.10,SE,140,0.0,-999.0,95,-99.99,,,0.03,weatherlink.com 1.10,2013-01-08 11:18:00,
2013-01-08 06:33:00,70.6,70.0,30.10,SE,140,0.0,-999.0,96,-99.99,,,0.03,weatherlink.com 1.10,2013-01-08 11:33:00,
2013-01-08 06:48:00,70.6,70.0,30.11,SE,140,0.0,-999.0,96,-99.99,,,0.03,weatherlink.com 1.10,2013-01-08 11:48:00,
2013-01-08 07:03:00,70.4,69.0,30.12,SE,136,0.0,-999.0,96,-99.99,,,0.03,weatherlink.com 1.10,2013-01-08 12:03:00,
2013-01-08 07:18:00,70.2,69.0,30.12,SE,136,0.0,-999.0,96,-99.99,,,0.03,weatherlink.com 1.10,2013-01-08 12:18:00,
2013-01-08 07:34:00,70.1,69.0,30.13,SE,136,0.0,-999.0,96,-99.99,,,0.03,weatherlink.com 1.10,2013-01-08 12:34:00,
2013-01-08 07:49:00,70.4,69.0,30.13,SE,136,0.0,-999.0,96,-99.99,,,0.03,weatherlink.com 1.10,2013-01-08 12:49:00,
2013-01-08 08:04:00,70.7,70.0,30.14,SE,124,0.0,-999.0,97,-99.99,,,0.03,weatherlink.com 1.10,2013-01-08 13:04:00,
2013-01-08 08:19:00,71.2,70.0,30.15,ESE,123,0.0,-999.0,97,-99.99,,,0.03,weatherlink.com 1.10,2013-01-08 13:19:00,
2013-01-08 08:34:00,71.7,71.0,30.15,North,355,0.0,-999.0,96,-99.99,,,0.03,weatherlink.com 1.10,2013-01-08 13:34:00,
2013-01-08 08:49:00,72.3,71.0,30.16,NW,319,0.0,-999.0,96,-99.99,,,0.03,weatherlink.com 1.10,2013-01-08 13:49:00,
2013-01-08 09:04:00,72.5,71.0,30.17,NNE,22,0.0,-999.0,95,-99.99,,,0.03,weatherlink.com 1.10,2013-01-08 14:04:00,
2013-01-08 09:19:00,73.2,72.0,30.18,NW,321,0.0,-999.0,95,-99.99,,,0.03,weatherlink.com 1.10,2013-01-08 14:19:00,
2013-01-08 09:34:00,74.1,73.0,30.18,NW,311,0.0,-999.0,95,-99.99,,,0.03,weatherlink.com 1.10,2013-01-08 14:34:00,
2013-01-08 09:49:00,75.9,74.0,30.18,SE,136,0.0,-999.0,92,-99.99,,,0.03,weatherlink.com 1.10,2013-01-08 14:49:00,
2013-01-08 10:04:00,78.4,73.0,30.18,South,188,0.0,-999.0,83,-99.99,,,0.03,weatherlink.com 1.10,2013-01-08 15:04:00,
2013-01-08 10:19:00,79.1,73.0,30.18,SSE,148,0.0,-999.0,82,-99.99,,,0.03,weatherlink.com 1.10,2013-01-08 15:19:00,
2013-01-08 10:34:00,80.1,73.0,30.18,East,88,0.0,-999.0,78,-99.99,,,0.03,weatherlink.com 1.10,2013-01-08 15:34:00,
2013-01-08 10:49:00,80.5,73.0,30.18,South,173,0.0,-999.0,78,-99.99,,,0.03,weatherlink.com 1.10,2013-01-08 15:49:00,
2013-01-08 11:04:00,81.0,72.0,30.17,ESE,117,0.0,-999.0,74,-99.99,,,0.03,weatherlink.com 1.10,2013-01-08 16:04:00,
2013-01-08 11:19:00,81.9,72.0,30.16,ESE,122,0.0,-999.0,72,-99.99,,,0.03,weatherlink.com 1.10,2013-01-08 16:19:00,
2013-01-08 11:34:00,82.0,73.0,30.16,SE,144,0.0,-999.0,73,-99.99,,,0.03,weatherlink.com 1.10,2013-01-08 16:34:00,
2013-01-08 11:49:00,82.2,72.0,30.16,SE,144,0.0,-999.0,71,-99.99,,,0.03,weatherlink.com 1.10,2013-01-08 16:49:00,
2013-01-08 12:04:00,82.0,72.0,30.15,ESE,115,0.0,-999.0,72,-99.99,,,0.03,weatherlink.com 1.10,2013-01-08 17:04:00,
2013-01-08 12:19:00,81.9,72.0,30.14,East,101,0.0,-999.0,71,-99.99,,,0.03,weatherlink.com 1.10,2013-01-08 17:19:00,
2013-01-08 12:34:00,81.1,73.0,30.14,SE,146,0.0,-999.0,75,-99.99,,,0.03,weatherlink.com 1.10,2013-01-08 17:34:00,
2013-01-08 12:49:00,80.5,72.0,30.14,ESE,123,0.0,-999.0,76,-99.99,,,0.03,weatherlink.com 1.10,2013-01-08 17:49:00,
2013-01-08 13:04:00,80.5,72.0,30.13,East,81,0.0,-999.0,75,-99.99,,,0.03,weatherlink.com 1.10,2013-01-08 18:04:00,
2013-01-08 13:19:00,80.5,73.0,30.13,SW,217,0.0,-999.0,77,-99.99,,,0.03,weatherlink.com 1.10,2013-01-08 18:19:00,
2013-01-08 13:34:00,79.9,73.0,30.12,SE,136,0.0,-999.0,79,-99.99,,,0.03,weatherlink.com 1.10,2013-01-08 18:34:00,
2013-01-08 13:49:00,79.7,73.0,30.12,SSE,150,0.0,-999.0,80,-99.99,,,0.03,weatherlink.com 1.10,2013-01-08 18:49:00,
2013-01-08 14:04:00,80.0,73.0,30.12,South,171,0.0,-999.0,80,-99.99,,,0.03,weatherlink.com 1.10,2013-01-08 19:04:00,
2013-01-08 14:19:00,80.3,73.0,30.11,East,97,0.0,-999.0,79,-99.99,,,0.03,weatherlink.com 1.10,2013-01-08 19:19:00,
2013-01-08 14:34:00,80.3,73.0,30.11,SSE,155,0.0,-999.0,78,-99.99,,,0.03,weatherlink.com 1.10,2013-01-08 19:34:00,
2013-01-08 14:49:00,80.2,73.0,30.11,SSE,148,0.0,-999.0,78,-99.99,,,0.03,weatherlink.com 1.10,2013-01-08 19:49:00,
2013-01-08 15:04:00,79.7,72.0,30.11,ESE,104,0.0,-999.0,78,-99.99,,,0.03,weatherlink.com 1.10,2013-01-08 20:04:00,
2013-01-08 15:19:00,79.4,72.0,30.11,ESE,115,0.0,-999.0,78,-99.99,,,0.03,weatherlink.com 1.10,2013-01-08 20:19:00,
2013-01-08 15:34:00,79.6,72.0,30.11,SE,127,0.0,-999.0,78,-99.99,,,0.03,weatherlink.com 1.10,2013-01-08 20:34:00,
2013-01-08 15:49:00,79.3,72.0,30.12,South,171,0.0,-999.0,79,-99.99,,,0.03,weatherlink.com 1.10,2013-01-08 20:49:00,
2013-01-08 16:04:00,79.0,72.0,30.12,SE,140,0.0,-999.0,79,-99.99,,,0.03,weatherlink.com 1.10,2013-01-08 21:04:00,
2013-01-08 16:19:00,78.6,72.0,30.12,SE,130,0.0,-999.0,80,-99.99,,,0.03,weatherlink.com 1.10,2013-01-08 21:19:00,
2013-01-08 16:34:00,78.3,72.0,30.12,SE,132,0.0,-999.0,81,-99.99,,,0.03,weatherlink.com 1.10,2013-01-08 21:34:00,
2013-01-08 16:49:00,78.0,72.0,30.13,SE,130,0.0,-999.0,82,-99.99,,,0.03,weatherlink.com 1.10,2013-01-08 21:49:00,
2013-01-08 17:04:00,77.7,72.0,30.13,SE,138,0.0,-999.0,83,-99.99,,,0.03,weatherlink.com 1.10,2013-01-08 22:04:00,
2013-01-08 17:19:00,77.4,72.0,30.14,SE,137,0.0,-999.0,84,-99.99,,,0.03,weatherlink.com 1.10,2013-01-08 22:19:00,
2013-01-08 17:34:00,76.9,72.0,30.14,SE,135,0.0,-999.0,84,-99.99,,,0.03,weatherlink.com 1.10,2013-01-08 22:34:00,
2013-01-08 17:49:00,76.6,72.0,30.14,ESE,117,0.0,-999.0,85,-99.99,,,0.03,weatherlink.com 1.10,2013-01-08 22:49:00,
2013-01-08 18:04:00,76.3,72.0,30.14,ESE,115,0.0,-999.0,85,-99.99,,,0.03,weatherlink.com 1.10,2013-01-08 23:04:00,
2013-01-08 18:19:00,76.1,72.0,30.14,ESE,117,0.0,-999.0,86,-99.99,,,0.03,weatherlink.com 1.10,2013-01-08 23:19:00,
2013-01-08 18:34:00,75.8,72.0,30.14,SE,136,0.0,-999.0,87,-99.99,,,0.03,weatherlink.com 1.10,2013-01-08 23:34:00,
2013-01-08 18:49:00,75.9,72.0,30.14,ESE,121,0.0,-999.0,87,-99.99,,,0.03,weatherlink.com 1.10,2013-01-08 23:49:00,
2013-01-08 19:04:00,75.6,72.0,30.14,ESE,114,0.0,-999.0,88,-99.99,,,0.03,weatherlink.com 1.10,2013-01-09 00:04:00,
2013-01-08 19:19:00,75.9,72.0,30.14,SSE,167,0.0,-999.0,87,-99.99,,,0.03,weatherlink.com 1.10,2013-01-09 00:19:00,
2013-01-08 19:34:00,76.0,72.0,30.15,ESE,120,0.0,-999.0,87,-99.99,,,0.03,weatherlink.com 1.10,2013-01-09 00:34:00,
2013-01-08 20:04:00,76.1,72.0,30.15,SE,130,0.0,-999.0,87,-99.99,,,0.03,weatherlink.com 1.10,2013-01-09 01:04:00,
2013-01-08 20:19:00,76.2,72.0,30.15,SE,136,0.0,-999.0,86,-99.99,,,0.03,weatherlink.com 1.10,2013-01-09 01:19:00,
2013-01-08 20:34:00,76.3,72.0,30.15,SE,126,0.0,-999.0,86,-99.99,,,0.03,weatherlink.com 1.10,2013-01-09 01:34:00,
2013-01-08 20:50:00,76.2,72.0,30.15,SSE,167,0.0,-999.0,86,-99.99,,,0.03,weatherlink.com 1.10,2013-01-09 01:50:00,
2013-01-08 21:04:00,76.0,72.0,30.15,East,101,0.0,-999.0,86,-99.99,,,0.03,weatherlink.com 1.10,2013-01-09 02:04:00,
2013-01-08 21:19:00,75.9,72.0,30.15,SE,133,0.0,-999.0,86,-99.99,,,0.03,weatherlink.com 1.10,2013-01-09 02:19:00,
2013-01-08 21:35:00,75.9,72.0,30.15,ESE,110,0.0,-999.0,87,-99.99,,,0.03,weatherlink.com 1.10,2013-01-09 02:35:00,
2013-01-08 21:50:00,76.2,72.0,30.15,SSE,148,0.0,-999.0,87,-99.99,,,0.03,weatherlink.com 1.10,2013-01-09 02:50:00,
2013-01-08 22:05:00,76.3,72.0,30.15,South,186,0.0,-999.0,87,-99.99,,,0.03,weatherlink.com 1.10,2013-01-09 03:05:00,
2013-01-08 22:20:00,76.3,72.0,30.15,SE,124,0.0,-999.0,87,-99.99,,,0.03,weatherlink.com 1.10,2013-01-09 03:20:00,
2013-01-08 22:35:00,76.2,73.0,30.15,ESE,123,0.0,-999.0,88,-99.99,,,0.03,weatherlink.com 1.10,2013-01-09 03:35:00,
2013-01-08 22:50:00,76.5,72.0,30.16,SSE,159,0.0,-999.0,87,-99.99,,,0.03,weatherlink.com 1.10,2013-01-09 03:50:00,
2013-01-08 23:05:00,73.6,71.0,30.16,SE,127,0.0,-999.0,92,-99.99,,,0.06,weatherlink.com 1.10,2013-01-09 04:05:00,
2013-01-08 23:20:00,73.3,71.0,30.16,SE,126,0.0,-999.0,93,-99.99,,,0.06,weatherlink.com 1.10,2013-01-09 04:20:00,
2013-01-08 23:35:00,73.7,72.0,30.16,ESE,118,0.0,-999.0,94,-99.99,,,0.06,weatherlink.com 1.10,2013-01-09 04:35:00,
2013-01-08 23:50:00,73.7,72.0,30.15,SE,146,0.0,-999.0,94,-99.99,,,0.06,weatherlink.com 1.10,2013-01-09 04:50:00,